Regional Weather Roundup
Issued by NWS Sioux Falls, SD

Home | Current Version | Previous Version | Graphics & Text | Print | Product List | Glossary Off
Versions: 1 2 3 4 5 6 7 8 9 10 11 12 13 14 15 16 17 18 19 20 21 22 23 24 25 26 27 28 29 30 31 32 33 34 35 36 37 38 39 40 41 42 43 44 45 46 47 48 49 50

000
ASUS43 KFSD 062002
RWRFSD

WEATHER ROUNDUP FOR SE SOUTH DAKOTA/SW MINNESOTA/NW IOWA
NATIONAL WEATHER SERVICE SIOUX FALLS SD
300 PM CDT FRI MAY 06 2016

NOTE: "FAIR" INDICATES FEW OR NO CLOUDS BELOW 12,000 FEET WITH NO
SIGNIFICANT WEATHER AND OR OBSTRUCTIONS TO VISIBILITY.


SDZ038>040-050-052>070-062100-
SOUTHEAST SOUTH DAKOTA

CITY           SKY/WX    TMP DP  RH WIND       PRES   REMARKS
BROOKINGS      MOSUNNY   87  48  25 W14       29.81S
CHAMBERLAIN    NOT AVBL
HURON          MOSUNNY   89  49  25 W7        29.80F
MADISON        FAIR      84  52  32 W22       29.82F
MITCHELL       SUNNY     88  53  30 W14G25    29.81F
SIOUX FALLS    MOSUNNY   85  50  29 W14G25    29.82F
WINNER         FAIR      87  51  28 SW15      29.85S
YANKTON        SUNNY     88  50  27 SW14G21   29.83F
$$

MNZ071-072-080-081-089-090-097-098-062100-
SOUTHWEST MINNESOTA

CITY           SKY/WX    TMP DP  RH WIND       PRES   REMARKS
FAIRMONT       SUNNY     88  36  15 W23G30    29.82F
JACKSON        SUNNY     88  34  14 SW21G32   29.84F
LUVERNE        SUNNY     84  45  24 W22G28    29.84F
MARSHALL       MOSUNNY   90  52  27 NW16G32   29.76S
MONTEVIDEO     MOSUNNY   90  52  27 N15G21    29.76S
PIPESTONE      MOSUNNY   84  43  23 W24G31    29.83S
REDWOOD FALLS  SUNNY     89  49  25 W21G32    29.73F
TRACY          MOSUNNY   89  48  24 W15G26    29.78S
WINDOM         SUNNY     88  43  20 SW25G33   29.80F
WORTHINGTON    SUNNY     87  49  26 SW21G29   29.84S
$$

IAZ001>003-012>014-020>022-031-032-NEZ013-014-SDZ071-062100-
NORTHWEST IOWA

CITY           SKY/WX    TMP DP  RH WIND       PRES   REMARKS
DENISON        SUNNY     84  45  24 SW20G26   29.89F
ESTHERVILLE    SUNNY     87  46  24 W28G35    29.84F
SIOUX CITY     SUNNY     86  52  30 SW22G29   29.87F
SPENCER        SUNNY     88  45  22 SW23G32   29.85F
STORM LAKE     SUNNY     84  45  24 SW25G36   29.89F
$$

ABBREVIATIONS USED IN REMARKS
   TC - TEMPERATURE IN CELSIUS
  WCI - WIND CHILL INDEX
   HX - HEAT INDEX
  VSB - VISIBILITY




USA.gov is the U.S. government's official web portal to all federal, state and local government web resources and services.